Tracking 29892 objects as of 21-Nov-2024
HD Live streaming from Space Station
objects crossing your sky now

EXPRESS AMU-7

Track EXPRESS AMU-7 now!


NORAD ID: 50001
Int'l Code: 2021-123A
Perigee: 35,790.9 km
Apogee: 35,796.4 km
Inclination: 0.0 °
Period: 1,436.1 minutes
Semi major axis: 42164 km
RCS: Unknown
Launch date: December 13, 2021
Source: Commonwealth of Independent States (former USSR) (CIS)
Launch site: TYURATAM MISSILE AND SPACE COMPLEX (TTMTR)
Your satellite tracking list
Your tracking list is empty




NASA's NSSDC Master Catalog

Two Line Element Set (TLE):
1 50001U 21123A   24324.43345307 -.00000241  00000-0  00000-0 0  9997
2 50001   0.0200 293.5659 0000658 220.9374 205.5184  1.00272058 10781
Source of the keplerian elements: AFSPC